#Datum;Uhrzeit;WR;Pac;DaySum;Status;WR;Pac;DaySum;Status;Pdc1;Udc;Temp;WR;Pac;DaySum;Status;Pdc1;Udc;Temp;WR;Pac;DaySum;Status;Pdc1;Udc;Temp;WR;Pac;DaySum;Status;Pdc1;Pdc2;Udc1;Udc2;Temp;WR;Pac;DaySum;Status;Pdc1;Pdc2;Udc1;Udc2;Temp;WR;Pac;DaySum;Status;Pdc1;Udc;Temp;WR;Pac;DaySum;Status;Pdc1;Udc;Temp;WR;Pac;DaySum;Status;Pdc1;Udc;Temp
10.02.19;23:55:00;1;417;10302;0;2;0;12563;0;0;0;0;3;0;8426;0;0;0;0;4;0;12444;0;0;0;0;5;0;35129;0;0;0;0;0;0;6;0;26638;0;0;0;0;0;0;7;0;20802;0;0;0;0;8;0;20429;0;0;0;0;9;0;11169;0;0;0;0
10.02.19;23:50:00;1;408;10267;0;2;0;12563;0;0;0;0;3;0;8426;0;0;0;0;4;0;12444;0;0;0;0;5;0;35129;0;0;0;0;0;0;6;0;26638;0;0;0;0;0;0;7;0;20802;0;0;0;0;8;0;20429;0;0;0;0;9;0;11169;0;0;0;0
10.02.19;23:45:00;1;300;10233;0;2;0;12563;0;0;0;0;3;0;8426;0;0;0;0;4;0;12444;0;0;0;0;5;0;35129;0;0;0;0;0;0;6;0;26638;0;0;0;0;0;0;7;0;20802;0;0;0;0;8;0;20429;0;0;0;0;9;0;11169;0;0;0;0
10.02.19;23:40:00;1;444;10208;0;2;0;12563;0;0;0;0;3;0;8426;0;0;0;0;4;0;12444;0;0;0;0;5;0;35129;0;0;0;0;0;0;6;0;26638;0;0;0;0;0;0;7;0;20802;0;0;0;0;8;0;20429;0;0;0;0;9;0;11169;0;0;0;0
10.02.19;23:35:00;1;881;10170;0;2;0;12563;0;0;0;0;3;0;8426;0;0;0;0;4;0;12444;0;0;0;0;5;0;35129;0;0;0;0;0;0;6;0;26638;0;0;0;0;0;0;7;0;20802;0;0;0;0;8;0;20429;0;0;0;0;9;0;11169;0;0;0;0
10.02.19;23:30:00;1;464;10105;0;2;0;12563;0;0;0;0;3;0;8426;0;0;0;0;4;0;12444;0;0;0;0;5;0;35129;0;0;0;0;0;0;6;0;26638;0;0;0;0;0;0;7;0;20802;0;0;0;0;8;0;20429;0;0;0;0;9;0;11169;0;0;0;0
10.02.19;23:25:00;1;424;10066;0;2;0;12563;0;0;0;0;3;0;8426;0;0;0;0;4;0;12444;0;0;0;0;5;0;35129;0;0;0;0;0;0;6;0;26638;0;0;0;0;0;0;7;0;20802;0;0;0;0;8;0;20429;0;0;0;0;9;0;11169;0;0;0;0
10.02.19;23:20:00;1;421;10031;0;2;0;12563;0;0;0;0;3;0;8426;0;0;0;0;4;0;12444;0;0;0;0;5;0;35129;0;0;0;0;0;0;6;0;26638;0;0;0;0;0;0;7;0;20802;0;0;0;0;8;0;20429;0;0;0;0;9;0;11169;0;0;0;0
10.02.19;23:15:00;1;424;9996;0;2;0;12563;0;0;0;0;3;0;8426;0;0;0;0;4;0;12444;0;0;0;0;5;0;35129;0;0;0;0;0;0;6;0;26638;0;0;0;0;0;0;7;0;20802;0;0;0;0;8;0;20429;0;0;0;0;9;0;11169;0;0;0;0
10.02.19;23:10:00;1;430;9960;0;2;0;12563;0;0;0;0;3;0;8426;0;0;0;0;4;0;12444;0;0;0;0;5;0;35129;0;0;0;0;0;0;6;0;26638;0;0;0;0;0;0;7;0;20802;0;0;0;0;8;0;20429;0;0;0;0;9;0;11169;0;0;0;0
10.02.19;23:07:00;1;446;9946;0;2;0;12563;0;0;0;0;3;0;8426;0;0;0;0;4;0;12444;0;0;0;0;5;0;35129;0;0;0;0;0;0;6;0;26638;0;0;0;0;0;0;7;0;20802;0;0;0;0;8;0;20429;0;0;0;0;9;0;11169;0;0;0;0
10.02.19;23:00:00;1;425;9863;0;2;0;12563;0;0;0;0;3;0;8426;0;0;0;0;4;0;12444;0;0;0;0;5;0;35129;0;0;0;0;0;0;6;0;26638;0;0;0;0;0;0;7;0;20802;0;0;0;0;8;0;20429;0;0;0;0;9;0;11169;0;0;0;0
10.02.19;22:55:00;1;424;9827;0;2;0;12563;0;0;0;0;3;0;8426;0;0;0;0;4;0;12444;0;0;0;0;5;0;35129;2;0;0;0;0;0;6;0;26638;2;0;0;0;0;0;7;0;20802;0;0;0;0;8;0;20429;0;0;0;0;9;0;11169;0;0;0;0
10.02.19;22:50:00;1;425;9792;0;2;0;12563;0;0;0;0;3;0;8426;0;0;0;0;4;0;12444;0;0;0;0;5;0;35129;2;0;0;0;0;0;6;0;26638;2;0;0;0;0;0;7;0;20802;0;0;0;0;8;0;20429;0;0;0;0;9;0;11169;0;0;0;0
10.02.19;22:45:00;1;658;9757;0;2;0;12563;0;0;0;0;3;0;8426;0;0;0;0;4;0;12444;0;0;0;0;5;0;35129;2;0;0;0;0;0;6;0;26638;2;0;0;0;0;0;7;0;20802;0;0;0;0;8;0;20429;0;0;0;0;9;0;11169;0;0;0;0
10.02.19;22:40:00;1;463;9694;0;2;0;12563;0;0;0;0;3;0;8426;0;0;0;0;4;0;12444;0;0;0;0;5;0;35129;2;0;0;0;0;0;6;0;26638;2;0;0;0;0;0;7;0;20802;0;0;0;0;8;0;20429;0;0;0;0;9;0;11169;0;0;0;0
10.02.19;22:35:00;1;515;9656;0;2;0;12563;0;0;0;0;3;0;8426;0;0;0;0;4;0;12444;0;0;0;0;5;0;35129;2;0;0;0;0;0;6;0;26638;2;0;0;0;0;0;7;0;20802;0;0;0;0;8;0;20429;0;0;0;0;9;0;11169;0;0;0;0
10.02.19;22:30:00;1;539;9612;0;2;0;12563;0;0;0;0;3;0;8426;0;0;0;0;4;0;12444;0;0;0;0;5;0;35129;2;0;0;0;0;0;6;0;26638;2;0;0;0;0;0;7;0;20802;0;0;0;0;8;0;20429;0;0;0;0;9;0;11169;0;0;0;0
10.02.19;22:25:00;1;515;9566;0;2;0;12563;0;0;0;0;3;0;8426;0;0;0;0;4;0;12444;0;0;0;0;5;0;35129;2;0;0;0;0;0;6;0;26638;2;0;0;0;0;0;7;0;20802;0;0;0;0;8;0;20429;0;0;0;0;9;0;11169;0;0;0;0
10.02.19;22:20:00;1;551;9523;0;2;0;12563;0;0;0;0;3;0;8426;0;0;0;0;4;0;12444;0;0;0;0;5;0;35129;2;0;0;0;0;0;6;0;26638;2;0;0;0;0;0;7;0;20802;0;0;0;0;8;0;20429;0;0;0;0;9;0;11169;0;0;0;0
10.02.19;22:15:00;1;930;9458;0;2;0;12563;0;0;0;0;3;0;8426;0;0;0;0;4;0;12444;0;0;0;0;5;0;35129;2;0;0;0;0;0;6;0;26638;2;0;0;0;0;0;7;0;20802;0;0;0;0;8;0;20429;0;0;0;0;9;0;11169;0;0;0;0
10.02.19;22:10:00;1;522;9410;0;2;0;12563;0;0;0;0;3;0;8426;0;0;0;0;4;0;12444;0;0;0;0;5;0;35129;2;0;0;0;0;0;6;0;26638;2;0;0;0;0;0;7;0;20802;0;0;0;0;8;0;20429;0;0;0;0;9;0;11169;0;0;0;0
10.02.19;22:05:00;1;527;9366;0;2;0;12563;0;0;0;0;3;0;8426;0;0;0;0;4;0;12444;0;0;0;0;5;0;35129;2;0;0;0;0;0;6;0;26638;2;0;0;0;0;0;7;0;20802;0;0;0;0;8;0;20429;0;0;0;0;9;0;11169;0;0;0;0
10.02.19;22:00:00;1;455;9322;0;2;0;12563;0;0;0;0;3;0;8426;0;0;0;0;4;0;12444;0;0;0;0;5;0;35129;2;0;0;0;0;0;6;0;26638;2;0;0;0;0;0;7;0;20802;0;0;0;0;8;0;20429;0;0;0;0;9;0;11169;0;0;0;0
10.02.19;21:55:00;1;459;9284;0;2;0;12563;0;0;0;0;3;0;8426;0;0;0;0;4;0;12444;0;0;0;0;5;0;35129;2;0;0;0;0;0;6;0;26638;2;0;0;0;0;0;7;0;20802;0;0;0;0;8;0;20429;0;0;0;0;9;0;11169;0;0;0;0
10.02.19;21:50:00;1;824;9245;0;2;0;12563;0;0;0;0;3;0;8426;0;0;0;0;4;0;12444;0;0;0;0;5;0;35129;2;0;0;0;0;0;6;0;26638;2;0;0;0;0;0;7;0;20802;0;0;0;0;8;0;20429;0;0;0;0;9;0;11169;0;0;0;0
10.02.19;21:45:00;1;456;9179;0;2;0;12563;0;0;0;0;3;0;8426;0;0;0;0;4;0;12444;0;0;0;0;5;0;35129;2;0;0;0;0;0;6;0;26638;2;0;0;0;0;0;7;0;20802;0;0;0;0;8;0;20429;0;0;0;0;9;0;11169;0;0;0;0
10.02.19;21:40:00;1;496;9140;0;2;0;12563;0;0;0;0;3;0;8426;0;0;0;0;4;0;12444;0;0;0;0;5;0;35129;2;0;0;0;0;0;6;0;26638;2;0;0;0;0;0;7;0;20802;0;0;0;0;8;0;20429;0;0;0;0;9;0;11169;0;0;0;0
10.02.19;21:35:00;1;503;9099;0;2;0;12563;0;0;0;0;3;0;8426;0;0;0;0;4;0;12444;0;0;0;0;5;0;35129;2;0;0;0;0;0;6;0;26638;2;0;0;0;0;0;7;0;20802;0;0;0;0;8;0;20429;0;0;0;0;9;0;11169;0;0;0;0
10.02.19;21:30:00;1;579;9056;0;2;0;12563;0;0;0;0;3;0;8426;0;0;0;0;4;0;12444;0;0;0;0;5;0;35129;2;0;0;0;0;0;6;0;26638;2;0;0;0;0;0;7;0;20802;0;0;0;0;8;0;20429;0;0;0;0;9;0;11169;0;0;0;0
10.02.19;21:25:00;1;983;9008;0;2;0;12563;0;0;0;0;3;0;8426;0;0;0;0;4;0;12444;0;0;0;0;5;0;35129;2;0;0;0;0;0;6;0;26638;2;0;0;0;0;0;7;0;20802;0;0;0;0;8;0;20429;0;0;0;0;9;0;11169;0;0;0;0
10.02.19;21:20:00;1;568;8933;0;2;0;12563;0;0;0;0;3;0;8426;0;0;0;0;4;0;12444;0;0;0;0;5;0;35129;2;0;0;0;0;0;6;0;26638;2;0;0;0;0;0;7;0;20802;0;0;0;0;8;0;20429;0;0;0;0;9;0;11169;0;0;0;0
10.02.19;21:15:00;1;609;8885;0;2;0;12563;0;0;0;0;3;0;8426;0;0;0;0;4;0;12444;0;0;0;0;5;0;35129;2;0;0;0;0;0;6;0;26638;2;0;0;0;0;0;7;0;20802;0;0;0;0;8;0;20429;0;0;0;0;9;0;11169;0;0;0;0
10.02.19;21:10:00;1;626;8834;0;2;0;12563;0;0;0;0;3;0;8426;0;0;0;0;4;0;12444;0;0;0;0;5;0;35129;2;0;0;0;0;0;6;0;26638;2;0;0;0;0;0;7;0;20802;0;0;0;0;8;0;20429;0;0;0;0;9;0;11169;0;0;0;0
10.02.19;21:05:00;1;818;8782;0;2;0;12563;0;0;0;0;3;0;8426;0;0;0;0;4;0;12444;0;0;0;0;5;0;35129;2;0;0;0;0;0;6;0;26638;2;0;0;0;0;0;7;0;20802;0;0;0;0;8;0;20429;0;0;0;0;9;0;11169;0;0;0;0
10.02.19;21:00:00;1;952;8708;0;2;0;12563;0;0;0;0;3;0;8426;0;0;0;0;4;0;12444;0;0;0;0;5;0;35129;2;0;0;0;0;0;6;0;26638;2;0;0;0;0;0;7;0;20802;0;0;0;0;8;0;20429;0;0;0;0;9;0;11169;0;0;0;0
10.02.19;20:55:00;1;578;8656;0;2;0;12563;0;0;0;0;3;0;8426;0;0;0;0;4;0;12444;0;0;0;0;5;0;35129;2;0;0;0;0;0;6;0;26638;2;0;0;0;0;0;7;0;20802;0;0;0;0;8;0;20429;0;0;0;0;9;0;11169;0;0;0;0
10.02.19;20:50:00;1;572;8608;0;2;0;12563;0;0;0;0;3;0;8426;0;0;0;0;4;0;12444;0;0;0;0;5;0;35129;2;0;0;0;0;0;6;0;26638;2;0;0;0;0;0;7;0;20802;0;0;0;0;8;0;20429;0;0;0;0;9;0;11169;0;0;0;0
10.02.19;20:45:00;1;561;8560;0;2;0;12563;0;0;0;0;3;0;8426;0;0;0;0;4;0;12444;0;0;0;0;5;0;35129;2;0;0;0;0;0;6;0;26638;2;0;0;0;0;0;7;0;20802;0;0;0;0;8;0;20429;0;0;0;0;9;0;11169;0;0;0;0
10.02.19;20:40:00;1;978;8512;0;2;0;12563;0;0;0;0;3;0;8426;0;0;0;0;4;0;12444;0;0;0;0;5;0;35129;2;0;0;0;0;0;6;0;26638;2;0;0;0;0;0;7;0;20802;0;0;0;0;8;0;20429;0;0;0;0;9;0;11169;0;0;0;0
10.02.19;20:35:00;1;628;8433;0;2;0;12563;0;0;0;0;3;0;8426;0;0;0;0;4;0;12444;0;0;0;0;5;0;35129;2;0;0;0;0;0;6;0;26638;2;0;0;0;0;0;7;0;20802;0;0;0;0;8;0;20429;0;0;0;0;9;0;11169;0;0;0;0
10.02.19;20:30:00;1;715;8381;0;2;0;12563;0;0;0;0;3;0;8426;0;0;0;0;4;0;12444;0;0;0;0;5;0;35129;2;0;0;0;0;0;6;0;26638;2;0;0;0;0;0;7;0;20802;0;0;0;0;8;0;20429;0;0;0;0;9;0;11169;0;0;0;0
10.02.19;20:25:00;1;563;8332;0;2;0;12563;0;0;0;0;3;0;8426;0;0;0;0;4;0;12444;0;0;0;0;5;0;35129;2;0;0;0;0;0;6;0;26638;2;0;0;0;0;0;7;0;20802;0;0;0;0;8;0;20429;0;0;0;0;9;0;11169;0;0;0;0
10.02.19;20:20:00;1;651;8284;0;2;0;12563;0;0;0;0;3;0;8426;0;0;0;0;4;0;12444;0;0;0;0;5;0;35129;2;0;0;0;0;0;6;0;26638;2;0;0;0;0;0;7;0;20802;0;0;0;0;8;0;20429;0;0;0;0;9;0;11169;0;0;0;0
10.02.19;20:15:00;1;749;8229;0;2;0;12563;0;0;0;0;3;0;8426;0;0;0;0;4;0;12444;0;0;0;0;5;0;35129;2;0;0;0;0;0;6;0;26638;2;0;0;0;0;0;7;0;20802;0;0;0;0;8;0;20429;0;0;0;0;9;0;11169;0;0;0;0
10.02.19;20:10:00;1;524;8158;0;2;0;12563;0;0;0;0;3;0;8426;0;0;0;0;4;0;12444;0;0;0;0;5;0;35129;2;0;0;0;0;0;6;0;26638;2;0;0;0;0;0;7;0;20802;0;0;0;0;8;0;20429;0;0;0;0;9;0;11169;0;0;0;0
10.02.19;20:05:00;1;278;8114;0;2;0;12563;0;0;0;0;3;0;8426;0;0;0;0;4;0;12444;0;0;0;0;5;0;35129;2;0;0;0;0;0;6;0;26638;2;0;0;0;0;0;7;0;20802;0;0;0;0;8;0;20429;0;0;0;0;9;0;11169;0;0;0;0
10.02.19;20:00:00;1;277;8091;0;2;0;12563;0;0;0;0;3;0;8426;0;0;0;0;4;0;12444;0;0;0;0;5;0;35129;2;0;0;0;0;0;6;0;26638;2;0;0;0;0;0;7;0;20802;0;0;0;0;8;0;20429;0;0;0;0;9;0;11169;0;0;0;0
10.02.19;19:55:00;1;279;8068;0;2;0;12563;0;0;0;0;3;0;8426;0;0;0;0;4;0;12444;0;0;0;0;5;0;35129;2;0;0;0;0;0;6;0;26638;2;0;0;0;0;0;7;0;20802;0;0;0;0;8;0;20429;0;0;0;0;9;0;11169;0;0;0;0
10.02.19;19:50:00;1;596;8044;0;2;0;12563;0;0;0;0;3;0;8426;0;0;0;0;4;0;12444;0;0;0;0;5;0;35129;2;0;0;0;0;0;6;0;26638;2;0;0;0;0;0;7;0;20802;0;0;0;0;8;0;20429;0;0;0;0;9;0;11169;0;0;0;0
10.02.19;19:45:00;1;220;7998;0;2;0;12563;0;0;0;0;3;0;8426;0;0;0;0;4;0;12444;0;0;0;0;5;0;35129;2;0;0;0;0;0;6;0;26638;2;0;0;0;0;0;7;0;20802;0;0;0;0;8;0;20429;0;0;0;0;9;0;11169;0;0;0;0
10.02.19;19:40:00;1;255;7979;0;2;0;12563;0;0;0;0;3;0;8426;0;0;0;0;4;0;12444;0;0;0;0;5;0;35129;2;0;0;0;0;0;6;0;26638;2;0;0;0;0;0;7;0;20802;0;0;0;0;8;0;20429;0;0;0;0;9;0;11169;0;0;0;0
10.02.19;19:35:00;1;257;7958;0;2;0;12563;0;0;0;0;3;0;8426;0;0;0;0;4;0;12444;0;0;0;0;5;0;35129;2;0;0;0;0;0;6;0;26638;2;0;0;0;0;0;7;0;20802;0;0;0;0;8;0;20429;0;0;0;0;9;0;11169;0;0;0;0
10.02.19;19:30:00;1;231;7937;0;2;0;12563;0;0;0;0;3;0;8426;0;0;0;0;4;0;12444;0;0;0;0;5;0;35129;2;0;0;0;0;0;6;0;26638;2;0;0;0;0;0;7;0;20802;0;0;0;0;8;0;20429;0;0;0;0;9;0;11169;0;0;0;0
10.02.19;19:25:00;1;214;7917;0;2;0;12563;0;0;0;0;3;0;8426;0;0;0;0;4;0;12444;0;0;0;0;5;0;35129;2;0;0;0;0;0;6;0;26638;2;0;0;0;0;0;7;0;20802;0;0;0;0;8;0;20429;0;0;0;0;9;0;11169;0;0;0;0
10.02.19;19:20:00;1;419;7899;0;2;0;12563;0;0;0;0;3;0;8426;0;0;0;0;4;0;12444;0;0;0;0;5;0;35129;2;0;0;0;0;0;6;0;26638;2;0;0;0;0;0;7;0;20802;0;0;0;0;8;0;20429;0;0;0;0;9;0;11169;0;0;0;0
10.02.19;19:15:00;1;213;7854;0;2;0;12563;0;0;0;0;3;0;8426;0;0;0;0;4;0;12444;0;0;0;0;5;0;35129;2;0;0;0;0;0;6;0;26638;2;0;0;0;0;0;7;0;20802;0;0;0;0;8;0;20429;0;0;0;0;9;0;11169;0;0;0;0
10.02.19;19:10:00;1;213;7836;0;2;0;12563;0;0;0;0;3;0;8426;0;0;0;0;4;0;12444;0;0;0;0;5;0;35129;2;0;0;0;0;0;6;0;26638;2;0;0;0;0;0;7;0;20802;0;0;0;0;8;0;20429;0;0;0;0;9;0;11169;0;0;0;0
10.02.19;19:05:00;1;213;7818;0;2;0;12563;0;0;0;0;3;0;8426;0;0;0;0;4;0;12444;0;0;0;0;5;0;35129;2;0;0;0;0;0;6;0;26638;2;0;0;0;0;0;7;0;20802;0;0;0;0;8;0;20429;0;0;0;0;9;0;11169;0;0;0;0
10.02.19;19:00:00;1;213;7801;0;2;0;12563;0;0;0;0;3;0;8426;0;0;0;0;4;0;12444;0;0;0;0;5;0;35129;2;0;0;0;0;0;6;0;26638;2;0;0;0;0;0;7;0;20802;0;0;0;0;8;0;20429;0;0;0;0;9;0;11169;0;0;0;0
10.02.19;18:55:00;1;417;7783;0;2;0;12563;0;0;0;0;3;0;8426;0;0;0;0;4;0;12444;0;0;0;0;5;0;35129;2;0;0;0;0;0;6;0;26638;2;0;0;0;0;0;7;0;20802;0;0;0;0;8;0;20429;0;0;0;0;9;0;11169;0;0;0;0
10.02.19;18:50:00;1;213;7738;0;2;0;12563;0;0;0;0;3;0;8426;0;0;0;0;4;0;12444;0;0;0;0;5;0;35129;2;0;0;0;0;0;6;0;26638;2;0;0;0;0;0;7;0;20802;0;0;0;0;8;0;20429;0;0;0;0;9;0;11169;0;0;0;0
10.02.19;18:45:00;1;223;7720;0;2;0;12563;0;0;0;0;3;0;8426;0;0;0;0;4;0;12444;0;0;0;0;5;0;35129;2;0;0;0;0;0;6;0;26638;2;0;0;0;0;0;7;0;20802;0;0;0;0;8;0;20429;0;0;0;0;9;0;11169;0;0;0;0
10.02.19;18:40:00;1;254;7701;0;2;0;12563;0;0;0;0;3;0;8426;0;0;0;0;4;0;12444;0;0;0;0;5;0;35129;2;0;0;0;0;0;6;0;26638;2;0;0;0;0;0;7;0;20802;0;0;0;0;8;0;20429;0;0;0;0;9;0;11169;0;0;0;0
10.02.19;18:35:00;1;256;7680;0;2;0;12563;0;0;0;0;3;0;8426;0;0;0;0;4;0;12444;0;0;0;0;5;0;35129;2;0;0;0;0;0;6;0;26638;2;0;0;0;0;0;7;0;20802;0;0;0;0;8;0;20429;0;0;0;0;9;0;11169;0;0;0;0
10.02.19;18:30:00;1;234;7659;0;2;0;12563;0;0;0;0;3;0;8426;0;0;0;0;4;0;12444;0;0;0;0;5;0;35129;2;0;0;0;0;0;6;0;26638;2;0;0;0;0;0;7;0;20802;0;0;0;0;8;0;20429;0;0;0;0;9;0;11169;0;0;0;0
10.02.19;18:25:00;1;416;7630;0;2;0;12563;0;0;0;0;3;0;8426;0;0;0;0;4;0;12444;0;0;0;0;5;0;35129;2;0;0;0;0;0;6;0;26638;2;0;0;0;0;0;7;0;20802;0;0;0;0;8;0;20429;0;0;0;0;9;0;11169;0;0;0;0
10.02.19;18:20:00;1;212;7595;0;2;0;12563;0;0;0;0;3;0;8426;0;0;0;0;4;0;12444;0;0;0;0;5;0;35129;2;0;0;0;0;0;6;0;26638;2;0;0;0;0;0;7;0;20802;0;0;0;0;8;0;20429;0;0;0;0;9;0;11169;0;0;0;0
10.02.19;18:15:00;1;211;7577;0;2;0;12563;0;0;0;0;3;0;8426;0;0;0;0;4;0;12444;0;0;0;0;5;0;35129;2;0;0;0;0;0;6;0;26638;2;0;0;0;0;0;7;0;20802;0;0;0;0;8;0;20429;0;0;0;0;9;0;11169;0;0;0;0
10.02.19;18:10:00;1;275;7559;0;2;0;12563;0;0;0;0;3;0;8426;0;0;0;0;4;0;12444;0;0;0;0;5;0;35129;2;0;0;0;0;0;6;0;26638;2;0;0;0;0;0;7;0;20802;0;0;0;0;8;0;20429;0;0;0;0;9;0;11169;0;0;0;0
10.02.19;18:05:00;1;276;7536;0;2;0;12563;0;0;0;0;3;0;8426;0;0;0;0;4;0;12444;0;0;0;0;5;0;35129;2;0;0;0;0;0;6;0;26638;2;0;0;0;0;0;7;0;20802;0;0;0;0;8;0;20429;0;0;0;0;9;0;11169;0;0;0;0
10.02.19;18:00:00;1;456;7513;0;2;0;12563;0;0;0;0;3;0;8426;0;0;0;0;4;0;12444;0;0;0;0;5;0;35129;2;0;0;0;0;0;6;0;26638;2;0;0;0;0;0;7;0;20802;0;0;0;0;8;0;20429;0;0;0;0;9;0;11169;0;0;0;0
10.02.19;17:55:00;1;284;7463;0;2;0;12563;0;0;0;0;3;0;8426;0;0;0;0;4;0;12444;0;0;0;0;5;0;35129;2;0;0;0;0;0;6;0;26638;2;0;0;0;0;0;7;0;20802;0;0;0;0;8;0;20429;0;0;0;0;9;0;11169;0;0;0;0
10.02.19;17:50:00;1;279;7440;0;2;0;12563;0;0;0;0;3;0;8426;0;0;0;0;4;0;12444;0;0;0;0;5;0;35129;2;0;0;0;0;0;6;0;26638;2;0;0;0;0;0;7;0;20802;0;0;0;0;8;0;20429;0;0;0;0;9;0;11169;0;0;0;0
10.02.19;17:45:00;1;301;7417;0;2;0;12563;0;0;0;0;3;0;8426;0;0;0;0;4;0;12444;0;0;0;0;5;0;35129;2;0;0;0;0;0;6;0;26638;2;0;0;0;0;0;7;0;20802;0;0;0;0;8;0;20429;0;0;0;0;9;0;11169;0;0;0;0
10.02.19;17:40:00;1;322;7391;0;2;0;12563;0;0;0;0;3;0;8426;0;0;0;0;4;0;12444;0;0;0;0;5;0;35129;2;0;0;0;0;0;6;0;26638;2;0;0;0;0;0;7;0;20802;0;0;0;0;8;0;20429;0;0;0;0;9;0;11169;0;0;0;0
10.02.19;17:35:00;1;258;7365;0;2;0;12563;0;0;0;0;3;0;8426;0;0;0;0;4;0;12444;0;0;0;0;5;0;35129;2;0;0;0;0;0;6;0;26638;2;0;0;0;0;0;7;0;20802;0;0;0;0;8;0;20429;0;0;0;0;9;0;11169;0;0;0;0
10.02.19;17:30:00;1;495;7327;0;2;0;12563;0;0;129;5;3;0;8426;6;0;280;14;4;0;12444;0;0;0;0;5;0;35129;2;0;0;0;0;0;6;0;26638;0;0;0;0;0;0;7;0;20802;0;0;0;0;8;0;20429;0;0;0;0;9;0;11169;0;0;0;0
10.02.19;17:25:00;1;289;7294;0;2;0;12563;6;0;295;11;3;0;8426;6;0;339;14;4;0;12444;2;0;73;12;5;0;35129;2;0;0;76;75;7;6;0;26638;2;0;0;0;0;0;7;0;20802;0;0;0;0;8;0;20429;0;0;0;0;9;0;11169;0;0;0;0
10.02.19;17:20:00;1;236;7270;0;2;0;12563;6;0;344;11;3;0;8426;6;0;418;14;4;0;12444;1;0;128;12;5;0;35129;26;0;0;369;439;23;6;0;26638;23;7;1;180;467;22;7;0;20802;0;0;164;9;8;0;20429;0;0;166;9;9;0;11169;0;0;229;8
10.02.19;17:15:00;1;211;7250;0;2;0;12563;6;0;377;11;3;2;8426;3;5;429;14;4;0;12444;1;0;183;13;5;7;35129;1;0;0;401;627;24;6;0;26638;23;7;1;181;550;22;7;0;20802;6;0;351;16;8;0;20429;6;0;356;15;9;0;11169;6;0;368;11
10.02.19;17:10:00;1;208;7232;0;2;0;12563;6;0;399;12;3;1;8426;6;4;487;15;4;0;12444;1;0;214;13;5;46;35128;1;3;9;390;614;24;6;0;26638;23;7;2;321;577;23;7;0;20802;6;1;409;16;8;0;20429;6;0;418;16;9;0;11169;6;1;448;12
10.02.19;17:05:00;1;492;7215;0;2;3;12563;6;9;401;12;3;1;8426;6;6;503;15;4;0;12444;3;0;206;14;5;98;35124;4;24;27;373;586;25;6;38;26638;1;29;15;485;292;24;7;1;20802;6;4;447;16;8;1;20429;6;2;450;16;9;2;11169;6;3;492;12
10.02.19;17:00:00;1;209;7170;0;2;5;12563;6;10;411;12;3;1;8426;6;6;515;15;4;0;12444;3;0;223;14;5;118;35116;4;39;36;373;586;25;6;57;26634;4;40;19;454;219;24;7;4;20802;4;11;443;17;8;0;20429;6;4;469;16;9;0;11169;6;4;517;12
10.02.19;16:55:00;1;209;7153;0;2;0;12563;6;0;421;12;3;1;8426;6;8;510;15;4;0;12444;3;0;227;14;5;113;35106;4;37;36;373;586;25;6;57;26629;4;37;18;454;218;24;7;0;20801;3;8;461;17;8;3;20429;3;13;436;17;9;2;11169;6;4;509;12
10.02.19;16:50:00;1;209;7135;0;2;11;12563;4;21;400;13;3;0;8426;6;0;541;15;4;0;12444;3;0;199;15;5;124;35097;4;44;41;373;586;25;6;64;26625;4;47;23;455;218;24;7;6;20801;6;14;448;17;8;3;20429;6;7;472;17;9;0;11169;6;0;540;13
10.02.19;16:45:00;1;244;7118;0;2;55;12562;4;88;356;13;3;10;8426;3;22;493;16;4;23;12444;3;24;198;15;5;170;35086;4;66;60;373;586;25;6;84;26619;4;82;44;454;218;25;7;19;20801;6;41;412;18;8;23;20428;6;39;415;17;9;5;11169;3;14;498;13
10.02.19;16:40:00;1;251;7097;0;2;59;12557;4;94;369;14;3;5;8425;6;11;532;16;4;22;12442;3;23;198;15;5;182;35071;4;75;65;373;586;25;6;93;26612;4;67;36;454;218;25;7;43;20799;4;74;355;18;8;46;20427;4;75;360;18;9;3;11168;6;7;540;13
10.02.19;16:35:00;1;541;7076;0;2;72;12552;4;105;366;14;3;6;8424;6;14;531;16;4;29;12440;3;30;198;15;5;204;35056;4;90;77;373;586;26;6;103;26605;4;76;40;454;218;25;7;57;20796;4;80;356;18;8;48;20423;4;84;404;18;9;6;11168;6;10;538;13
10.02.19;16:30:00;1;210;7029;0;2;89;12546;4;121;366;14;3;8;8424;6;13;543;16;4;38;12438;3;39;197;15;5;233;35039;4;99;92;373;586;26;6;116;26596;4;60;29;454;218;25;7;61;20791;4;98;405;18;8;61;20419;4;102;417;18;9;5;11168;6;9;547;14
10.02.19;16:25:00;1;211;7011;0;2;108;12539;4;142;367;14;3;49;8423;6;80;486;17;4;60;12435;3;62;198;16;5;273;35019;4;119;105;373;586;26;6;135;26586;4;105;51;454;218;25;7;82;20786;4;115;397;18;8;76;20414;4;112;441;18;9;7;11167;6;12;548;14
10.02.19;16:20:00;1;210;6994;0;2;134;12530;4;171;369;15;3;72;8419;4;114;503;17;4;81;12430;3;85;199;16;5;323;34996;4;150;126;373;586;26;6;158;26575;4;115;58;454;218;25;7;121;20779;4;154;421;19;8;93;20407;4;137;483;18;9;32;11167;6;44;513;14
10.02.19;16:15:00;1;213;6976;0;2;116;12519;4;151;371;15;3;64;8413;4;104;458;17;4;63;12423;3;66;198;16;5;286;34969;4;130;110;373;586;26;6;146;26562;4;105;55;454;235;25;7;102;20769;4;137;414;19;8;97;20399;4;135;454;18;9;10;11164;6;15;542;15
10.02.19;16:10:00;1;213;6958;0;2;176;12509;4;211;376;15;3;96;8408;4;139;498;18;4;123;12418;3;129;222;17;5;402;34945;4;195;163;388;586;26;6;269;26549;4;124;137;454;476;25;7;154;20760;4;186;438;19;8;147;20391;4;183;447;19;9;68;11164;6;94;499;15
10.02.19;16:05:00;1;499;6940;0;2;223;12495;4;264;381;16;3;136;8400;4;175;498;18;4;172;12408;5;179;224;17;5;485;34911;4;234;194;395;586;26;6;340;26526;4;151;178;462;546;25;7;213;20748;4;257;446;19;8;222;20379;4;257;459;19;9;112;11158;4;149;516;16
10.02.19;16:00:00;1;260;6897;0;2;274;12476;4;316;386;16;3;166;8389;4;206;502;18;4;210;12393;5;218;229;17;5;599;34870;4;296;245;405;635;26;6;442;26497;4;192;196;580;557;25;7;237;20730;4;284;459;19;8;236;20361;4;284;463;19;9;127;11149;4;161;515;16
10.02.19;15:55:00;1;277;6875;0;2;356;12453;4;400;393;17;3;219;8375;4;263;500;19;4;292;12376;5;304;233;18;5;740;34820;4;358;303;410;664;27;6;555;26459;4;259;271;573;551;25;7;360;20711;4;405;467;20;8;357;20342;4;406;475;19;9;195;11139;4;227;519;16
10.02.19;15:50:00;1;279;6851;0;2;326;12424;4;370;392;17;3;199;8357;4;243;495;19;4;265;12352;5;275;229;18;5;734;34759;4;360;301;406;655;27;6;545;26413;4;280;297;583;553;25;7;328;20681;4;368;466;20;8;322;20312;4;366;466;20;9;174;11123;4;207;507;17
10.02.19;15:45:00;1;323;6828;0;2;540;12397;4;592;400;17;3;337;8340;4;384;501;19;4;460;12330;5;479;235;18;5;1133;34697;4;581;483;420;684;27;6;863;26367;4;454;450;588;566;25;7;560;20654;4;609;476;20;8;558;20285;4;612;465;20;9;299;11108;4;342;526;17
10.02.19;15:40:00;1;344;6801;0;2;530;12353;4;581;397;18;3;330;8313;4;382;507;19;4;446;12292;5;465;237;19;5;1088;34601;4;552;460;414;661;27;6;830;26294;4;421;419;589;572;26;7;575;20608;4;621;481;20;8;571;20240;4;626;478;20;9;307;11084;4;351;531;17
10.02.19;15:35:00;1;336;6772;0;2;512;12308;4;561;397;18;3;313;8285;4;367;512;20;4;430;12255;5;448;237;19;5;1092;34510;4;544;458;419;665;27;6;821;26225;4;424;430;592;567;26;7;553;20560;4;607;481;21;8;562;20192;4;606;473;20;9;294;11058;4;336;532;18
10.02.19;15:30:00;1;571;6729;0;2;612;12266;4;667;401;19;3;378;8259;4;432;500;20;4;525;12219;5;547;237;19;5;1303;34419;4;658;554;424;670;28;6;976;26156;4;484;483;595;566;26;7;687;20513;4;733;480;21;8;680;20145;4;726;466;21;9;358;11034;4;406;523;18
10.02.19;15:25:00;1;237;6691;0;2;751;12215;4;811;399;19;3;471;8228;4;527;502;20;4;657;12176;5;684;241;20;5;1558;34310;4;799;671;430;696;28;6;1185;26073;4;608;610;603;566;26;7;900;20457;4;957;476;21;8;884;20089;4;948;469;21;9;480;11004;4;529;526;19
10.02.19;15:20:00;1;394;6671;0;2;768;12153;4;830;407;20;3;482;8189;4;538;507;21;4;663;12122;5;691;238;20;5;1573;34180;4;810;676;425;694;28;6;1201;25974;4;616;616;598;566;26;7;912;20383;4;976;482;22;8;904;20016;4;963;475;21;9;488;10964;4;538;525;19
10.02.19;15:15:00;1;219;6640;0;2;1037;12089;4;1110;409;21;3;648;8149;4;716;523;21;4;884;12066;5;920;245;20;5;1966;34047;4;1035;856;425;698;28;6;1480;25873;4;779;770;598;570;26;7;1152;20307;4;1215;486;22;8;1130;19941;4;1195;483;22;9;602;10924;4;661;529;19
10.02.19;15:10:00;1;219;6618;0;2;1423;12004;4;1509;409;21;3;877;8095;4;951;538;21;4;1158;11994;5;1206;244;21;5;2496;33879;4;1319;1085;436;693;28;6;1882;25746;4;936;926;601;578;26;7;1657;20212;4;1735;486;22;8;1646;19848;4;1733;487;22;9;898;10874;4;969;538;20
10.02.19;15:05:00;1;216;6600;0;2;1105;11885;4;1179;406;21;3;695;8022;4;761;520;21;4;930;11897;5;969;242;21;5;2089;33673;4;1090;902;425;686;28;6;1582;25589;4;831;815;600;573;26;7;1290;20074;4;1367;487;22;8;1313;19711;4;1379;485;22;9;710;10800;4;776;536;20
10.02.19;15:00:00;1;504;6582;0;2;1141;11792;4;1218;409;22;3;722;7964;4;788;518;22;4;973;11820;5;1013;241;21;5;2138;33502;4;1118;928;428;687;29;6;1622;25458;4;835;812;598;569;26;7;1280;19967;4;1344;482;23;8;1264;19602;4;1335;485;22;9;675;10740;4;735;535;20
10.02.19;14:55:00;1;217;6537;0;2;1152;11698;4;1231;410;22;3;732;7905;4;801;517;22;4;1001;11739;5;1043;242;21;5;2205;33322;4;1165;954;429;706;29;6;1676;25322;4;868;861;597;573;27;7;1321;19860;4;1400;486;23;8;1320;19496;4;1395;485;23;9;712;10684;4;775;535;21
10.02.19;14:50:00;1;217;6519;0;2;1157;11602;4;1236;406;22;3;733;7843;4;799;519;22;4;999;11655;5;1041;241;22;5;2223;33140;4;1174;967;431;702;29;6;1701;25183;4;887;874;599;575;27;7;1326;19751;4;1400;486;23;8;1307;19388;4;1384;480;23;9;703;10625;4;767;537;21
10.02.19;14:45:00;1;253;6501;0;2;1202;11506;4;1283;406;23;3;763;7783;4;832;525;22;4;1029;11573;5;1072;245;22;5;2312;32954;4;1219;1003;428;700;30;6;1756;25042;4;916;901;600;577;27;7;1425;19640;4;1512;481;24;8;1425;19278;4;1499;486;23;9;768;10566;4;834;537;21
10.02.19;14:40:00;1;259;6479;0;2;1277;11405;4;1358;408;24;3;809;7719;4;881;516;23;4;1103;11487;5;1149;243;23;5;2492;32761;4;1315;1081;429;703;30;6;1889;24895;4;985;968;605;576;27;7;1511;19522;4;1594;489;24;8;1486;19159;4;1570;486;24;9;801;10502;4;863;531;22
10.02.19;14:35:00;1;262;6457;0;2;1552;11299;4;1647;411;25;3;983;7652;4;1063;517;23;4;1334;11395;5;1389;243;23;5;2979;32551;4;1588;1301;435;700;30;6;2261;24735;4;1166;1148;609;583;27;7;1863;19396;4;1972;490;25;8;1857;19036;4;1956;489;24;9;1003;10436;4;1078;542;22
10.02.19;14:30:00;1;483;6436;0;2;1511;11171;4;1606;408;25;3;962;7570;4;1041;524;23;4;1294;11285;5;1348;243;23;5;2943;32294;4;1550;1280;437;700;30;6;2249;24541;4;1159;1141;604;580;27;7;1928;19243;4;2032;485;25;8;1913;18883;4;2018;487;25;9;1041;10353;4;1119;540;23
10.02.19;14:25:00;1;217;6391;0;2;1331;11042;4;1421;411;26;3;840;7488;4;915;530;24;4;1153;11175;5;1201;245;24;5;2625;32052;4;1391;1136;432;701;31;6;1999;24355;4;1015;998;603;579;28;7;1668;19079;4;1762;487;25;8;1649;18720;4;1733;483;25;9;884;10265;4;955;540;23
10.02.19;14:20:00;1;217;6373;0;2;1874;10931;4;1988;411;27;3;1176;7419;4;1261;524;24;4;1562;11079;5;1627;244;24;5;3469;31835;4;1860;1529;435;693;31;6;2622;24189;4;1353;1328;604;580;28;7;2392;18940;4;2521;493;26;8;2320;18584;4;2439;487;25;9;1241;10192;4;1326;532;24